[[{"header":{"parameterUnit":"m.s-1","parameterCategory":1,"la1":30.2991,"la2":30.254,"lo1":-89.0895,"lo2":-89.0444,"dy":0.0017,"dx":0.0017,"nx":28,"ny":28,"refTime":"2024-10-05T21:00:00:Z","depth":0,"parameterNumber":2,"parameterNumberName":"U-component_of_WINDS"},"data":[0,0,0,0,0,0,0,0,0,0,0,0,0,0,0,0,0,0,0,0,0,0,0,0,0,0,0,0,0,0,0,0,0,0,0,0,0,0,0,0,0,0,0,0,0,0,0,0,0,0,0,0,0,0,0,0,0,0,-3.7869,-3.787,0,-3.7921,-3.7922,-3.7922,-3.7876,-3.7874,-3.7872,-3.787,-3.7926,-3.793,-3.7933,0,0,0,0,0,0,0,0,0,0,0,0,0,-3.7736,-3.7739,-3.7869,-3.787,-3.787,-3.7921,-3.7922,-3.7922,-3.7876,-3.7874,-3.7872,-3.7869,-3.7925,-3.7929,-3.7933,0,0,0,0,0,0,0,0,0,0,0,0,0,-3.7792,-3.774,-3.7869,-3.7853,-3.7852,-3.7921,-3.7922,-3.7923,-3.7877,-3.7874,-3.7871,-3.7868,-3.7924,-3.7929,-3.7934,-3.8021,0,0,-3.7949,-3.7951,0,0,0,0,0,0,0,0,-3.7788,-3.7797,-3.7855,-3.7855,-3.7854,-3.7889,-3.7895,-3.7956,-3.7877,-3.7868,-3.787,-3.7867,-3.7917,-3.7922,-3.7938,-3.8024,-3.8026,-3.7949,-3.7952,-3.7954,-3.7956,0,0,0,0,0,0,0,-3.7785,-3.7794,-3.789,-3.7856,-3.7855,-3.7846,-3.7851,-3.7907,-3.7908,-3.7868,-3.7865,-3.7872,-3.7916,-3.7933,-3.7939,-3.8027,-3.7949,-3.7953,-3.7956,-3.7958,-3.8194,-3.8197,0,0,0,0,0,0,-3.7782,-3.7791,-3.7888,-3.7891,-3.7813,-3.7851,-3.7856,-3.7881,-3.7907,-3.7908,-3.7874,-3.7869,-3.7926,-3.7933,-3.7941,-3.805,-3.7954,-3.7959,-3.7962,-3.8191,-3.8195,-3.8198,0,0,0,0,0,0,-3.7779,-3.7791,-3.7886,-3.784,-3.7852,-3.7856,-3.7884,-3.7883,-3.7901,-3.7911,-3.7911,-3.7892,-3.7924,-3.7934,-3.8003,-3.8051,-3.7961,-3.7965,-3.8187,-3.8192,-3.8197,-3.8265,0,0,0,0,0,0,-3.7776,-3.779,-3.7822,-3.7841,-3.7854,-3.7945,-3.7887,-3.7886,-3.7909,-3.7903,-3.7928,-3.7929,-3.7923,-3.7996,-3.8008,-3.8056,-3.7969,-3.8183,-3.8189,-3.8195,-3.8258,-3.8272,-3.8283,0,0,0,0,0,-3.7771,-3.7838,-3.7823,-3.7835,-3.7894,-3.7948,-3.7956,-3.7946,-3.7913,-3.7946,-3.7954,-3.7928,-3.8043,-3.8003,-3.8016,-3.8067,-3.818,-3.8187,-3.8195,-3.8253,-3.8269,-3.8283,0,0,0,0,0,0,-3.7823,-3.784,-3.7824,-3.7899,-3.7923,-3.794,-3.7981,-3.7963,-3.7997,-3.799,-3.7978,-3.7984,-3.8058,-3.8068,-3.8024,-3.8156,-3.8106,-3.8117,-3.8146,-3.8162,-3.8174,-3.8171,-3.7973,0,0,0,0,0,-3.7843,-3.7885,-3.7898,-3.7963,-3.7976,-3.7977,-3.8,-3.7991,-3.8015,-3.8025,-3.8037,-3.8063,-3.8106,-3.8134,-3.8173,-3.8259,-3.8267,-3.8301,-3.8313,-3.8323,-3.8333,-3.8386,-3.8403,-3.8223,-3.8223,-3.8223,0,0,-3.7886,-3.79,-3.7927,-3.7974,-3.7991,-3.8038,-3.7985,-3.8034,-3.807,-3.8033,-3.81,-3.811,-3.8139,-3.8219,-3.8254,-3.823,-3.8385,-3.8333,-3.834,-3.8345,-3.8395,-3.8412,-3.8428,-3.8228,-3.8227,-3.8226,0,0,-3.7987,-3.8,-3.8059,-3.8078,-3.8105,-3.8106,-3.812,-3.8142,-3.8148,-3.8214,-3.819,-3.8232,-3.8303,-3.8327,-3.8348,-3.8464,-3.8444,-3.8477,-3.8541,-3.8593,-3.8607,-3.862,-3.8666,-3.8682,-3.8486,-3.8486,-3.8486,0,-3.8037,-3.8103,-3.8091,-3.8144,-3.8168,-3.8137,-3.8199,-3.8218,-3.8257,-3.8276,-3.8247,-3.8341,-3.8357,-3.8445,-3.8474,-3.849,-3.8509,-3.8475,-3.8606,-3.8618,-3.863,-3.8674,-3.8691,-3.849,-3.849,-3.8489,-3.8489,0,-3.8166,-3.8213,-3.8257,-3.8297,-3.8325,-3.8382,-3.8382,-3.8412,-3.8402,-3.8407,-3.8479,-3.8498,-3.8544,-3.8563,-3.8552,-3.8651,-3.8636,-3.8607,-3.8557,-3.8652,-3.8693,-3.871,-3.8496,-3.8495,-3.8494,-3.8493,0,0,-3.83,-3.8335,-3.8352,-3.8373,-3.8402,-3.844,-3.8497,-3.8541,-3.8571,-3.8599,-3.865,-3.8714,-3.8689,-3.8713,-3.8706,-3.8751,-3.8848,-3.8717,-3.8717,-3.8745,-3.8964,-3.8989,-3.9008,-3.8834,-3.8837,-3.884,-3.8964,0,-3.8407,-3.8506,-3.8499,-3.8594,-3.8641,-3.8614,-3.8665,-3.8691,-3.8698,-3.8741,-3.8749,-3.8797,-3.8757,-3.8773,-3.8815,-3.8827,-3.8893,-3.8818,-3.8886,-3.8888,-3.8883,-3.9029,-3.9054,-3.917,-3.8979,-3.8982,-3.8984,0,-3.8543,-3.8579,-3.8679,-3.8707,-3.8726,-3.8771,-3.8815,-3.8854,-3.8885,-3.8887,-3.8917,-3.8903,-3.8966,-3.8913,-3.9002,-3.8951,-3.8979,-3.8989,-3.8994,-3.9002,-3.8944,-3.9046,-3.9206,-3.9225,-3.9008,-3.9006,-3.9005,0,-3.8638,-3.871,-3.8781,-3.8798,-3.8831,-3.8865,-3.888,-3.8908,-3.8937,-3.8975,-3.8995,-3.9039,-3.9065,-3.9101,-3.9102,-3.9063,-3.9194,-3.914,-3.9202,-3.9202,-3.9232,-3.9231,-3.9403,-3.9244,-3.9244,-3.9243,-3.9243,0,-3.8759,-3.8822,-3.8824,-3.8868,-3.894,-3.8933,-3.9005,-3.9017,-3.9043,-3.9091,-3.907,-3.9117,-3.9113,-3.9161,-3.9162,-3.9239,-3.9249,-3.9256,-3.9256,-3.926,-3.926,-3.928,-3.9274,-3.9248,-3.9247,-3.9246,-3.9245,0,-3.8877,-3.888,-3.8956,-3.8982,-3.8991,-3.9043,-3.9067,-3.9111,-3.9117,-3.9179,-3.9193,-3.9205,-3.926,-3.9264,-3.9328,-3.9329,-3.9424,-3.9413,-3.9414,-3.9413,-3.9477,-3.9472,-3.9671,-3.9699,-3.9517,-3.9519,-3.952,0,-3.8956,-3.9004,-3.9037,-3.9068,-3.9086,-3.9135,-3.9166,-3.9162,-3.9195,-3.9236,-3.9276,-3.933,-3.9373,-3.9464,-3.948,-3.953,-3.9524,-3.959,-3.9531,-3.9535,-3.953,-3.9529,-3.9537,-3.9602,-3.9604,-3.9606,-3.9607,0,-3.9097,-3.9098,-3.9141,-3.9188,-3.9225,-3.9261,-3.9295,-3.9322,-3.9323,-3.9361,-3.9418,-3.9452,-3.952,-3.9575,-3.9626,-3.9644,-3.9629,-3.9625,-3.9643,-3.9649,-3.965,-3.9655,-3.9449,-3.9621,-3.962,-3.9619,-3.9618,-3.9617,-3.9201,-3.9245,-3.9277,-3.9328,-3.9353,-3.9387,-3.9431,-3.9444,-3.9491,-3.9546,-3.9541,-3.9606,-3.964,-3.9706,-3.973,-3.9783,-3.9761,-3.9785,-3.9792,-3.9799,-3.9808,-3.9639,-3.9791,-3.9791,-3.979,-3.979,-3.979,0,-3.9346,-3.9365,-3.9412,-3.9462,-3.9504,-3.9483,-3.9521,-3.9558,-3.9615,-3.9648,-3.9692,-3.9761,-3.9816,-3.9837,-3.9892,-3.9931,-3.9925,-3.9946,-3.9945,-3.9951,-3.9822,-3.9803,-3.995,-3.995,-3.995,-3.995,-3.995,-3.995,-3.9426,-3.9502,-3.9507,-3.9597,-3.9616,-3.9679,-3.9704,-3.9736,-3.9763,-3.9841,-3.9887,-3.99,-3.993,-3.9988,-4.0039,-4.0044,-4.0068,-4.0093,-4.0095,-3.9975,-3.9959,-3.9944,-3.9927,-4.0097,-4.0097,-4.022,-4.0221,-4.0222]},{"header":{"parameterUnit":"m.s-1","parameterCategory":1,"la1":30.2991,"la2":30.254,"lo1":-89.0895,"lo2":-89.0444,"dy":0.0017,"dx":0.0017,"nx":28,"ny":28,"refTime":"2024-10-05T21:00:00:Z","depth":0,"parameterNumber":3,"parameterNumberName":"V-component_of_WINDS"},"data":[0,0,0,0,0,0,0,0,0,0,0,0,0,0,0,0,0,0,0,0,0,0,0,0,0,0,0,0,0,0,0,0,0,0,0,0,0,0,0,0,0,0,0,0,0,0,0,0,0,0,0,0,0,0,0,0,0,0,-0.9203,-0.9203,0,-0.9278,-0.9279,-0.928,-0.9353,-0.9354,-0.9355,-0.9356,-0.9433,-0.9434,-0.9435,0,0,0,0,0,0,0,0,0,0,0,0,0,-0.9123,-0.9124,-0.9203,-0.9204,-0.9204,-0.9278,-0.9279,-0.928,-0.9353,-0.9354,-0.9356,-0.9357,-0.9432,-0.9434,-0.9435,0,0,0,0,0,0,0,0,0,0,0,0,0,-0.9174,-0.9125,-0.9202,-0.925,-0.9255,-0.9278,-0.9279,-0.928,-0.9353,-0.9354,-0.9356,-0.9357,-0.9432,-0.9433,-0.9435,-0.9417,0,0,-0.944,-0.9441,0,0,0,0,0,0,0,0,-0.9171,-0.9177,-0.9242,-0.9247,-0.9252,-0.9308,-0.9279,-0.9326,-0.9353,-0.9316,-0.9356,-0.9358,-0.939,-0.9395,-0.9406,-0.9421,-0.9424,-0.9441,-0.9442,-0.9442,-0.9443,0,0,0,0,0,0,0,-0.9168,-0.9174,-0.9233,-0.9243,-0.9249,-0.9268,-0.9277,-0.9288,-0.9344,-0.9319,-0.9325,-0.9333,-0.9393,-0.9404,-0.9408,-0.9425,-0.944,-0.9442,-0.9443,-0.9444,-0.9433,-0.9432,0,0,0,0,0,0,-0.9157,-0.9171,-0.923,-0.9235,-0.9214,-0.9268,-0.9278,-0.9289,-0.9344,-0.9354,-0.9331,-0.9336,-0.9401,-0.9406,-0.9411,-0.9398,-0.9442,-0.9444,-0.9445,-0.9435,-0.9433,-0.9432,0,0,0,0,0,0,-0.9155,-0.9161,-0.9227,-0.9204,-0.9214,-0.9268,-0.9279,-0.9289,-0.9301,-0.9353,-0.9363,-0.9333,-0.9402,-0.9409,-0.9416,-0.9401,-0.9445,-0.9446,-0.9436,-0.9434,-0.9432,-0.9367,0,0,0,0,0,0,-0.9152,-0.916,-0.9153,-0.9204,-0.9215,-0.923,-0.9278,-0.929,-0.9304,-0.931,-0.9357,-0.9366,-0.9404,-0.9413,-0.9418,-0.9404,-0.9448,-0.9438,-0.9435,-0.9433,-0.9371,-0.9363,-0.9356,0,0,0,0,0,-0.9149,-0.913,-0.9152,-0.9159,-0.9207,-0.9229,-0.9235,-0.9279,-0.9302,-0.9296,-0.9331,-0.9365,-0.9401,-0.9413,-0.9419,-0.9406,-0.9439,-0.9436,-0.9433,-0.9374,-0.9364,-0.9356,0,0,0,0,0,0,-0.9076,-0.9138,-0.9163,-0.916,-0.9189,-0.9241,-0.9235,-0.9267,-0.9289,-0.9295,-0.9348,-0.9358,-0.936,-0.9383,-0.9395,-0.9394,-0.9425,-0.9423,-0.9378,-0.937,-0.9363,-0.9358,-0.9449,0,0,0,0,0,-0.9059,-0.9071,-0.9125,-0.9117,-0.913,-0.918,-0.9191,-0.9222,-0.9254,-0.9266,-0.9301,-0.9331,-0.935,-0.9361,-0.938,-0.9374,-0.9387,-0.9368,-0.9361,-0.9355,-0.9353,-0.9356,-0.9349,-0.9422,-0.9422,-0.9422,0,0,-0.9025,-0.9061,-0.9065,-0.9103,-0.9129,-0.9142,-0.919,-0.9199,-0.921,-0.9268,-0.9278,-0.9304,-0.9341,-0.9343,-0.9345,-0.9363,-0.9336,-0.9351,-0.9345,-0.9347,-0.9352,-0.9345,-0.9339,-0.942,-0.942,-0.9421,0,0,-0.897,-0.8997,-0.8996,-0.9021,-0.9061,-0.9094,-0.9094,-0.9142,-0.9163,-0.9174,-0.9219,-0.9232,-0.9262,-0.9288,-0.9304,-0.9263,-0.9297,-0.9268,-0.9231,-0.9233,-0.9227,-0.9222,-0.9211,-0.9205,-0.9265,-0.9265,-0.9265,0,-0.8923,-0.8943,-0.899,-0.8999,-0.9016,-0.9071,-0.9071,-0.9093,-0.9136,-0.9148,-0.9166,-0.9208,-0.9236,-0.9247,-0.9237,-0.9248,-0.9251,-0.9263,-0.9224,-0.9219,-0.9216,-0.9205,-0.9201,-0.9262,-0.9262,-0.9262,-0.9263,0,-0.8885,-0.8899,-0.8893,-0.8935,-0.8952,-0.8955,-0.9005,-0.9015,-0.9046,-0.9078,-0.9091,-0.9127,-0.9157,-0.9161,-0.919,-0.9177,-0.9187,-0.9214,-0.9247,-0.9204,-0.9196,-0.9192,-0.9257,-0.9258,-0.9259,-0.926,0,0,-0.8785,-0.8856,-0.8854,-0.8875,-0.8924,-0.8936,-0.8943,-0.8974,-0.8984,-0.9012,-0.9022,-0.9047,-0.9074,-0.9093,-0.9126,-0.9127,-0.9097,-0.9155,-0.9157,-0.9145,-0.9089,-0.907,-0.9064,-0.9119,-0.9118,-0.9118,-0.9087,0,-0.8741,-0.8759,-0.8803,-0.8807,-0.8822,-0.8875,-0.8882,-0.8914,-0.8944,-0.8962,-0.8996,-0.9015,-0.9047,-0.906,-0.9063,-0.9099,-0.9086,-0.9102,-0.913,-0.9131,-0.9122,-0.9059,-0.9039,-0.9007,-0.9083,-0.9083,-0.9082,0,-0.8691,-0.8719,-0.8725,-0.8776,-0.8784,-0.879,-0.8824,-0.8839,-0.8877,-0.8899,-0.8922,-0.8959,-0.8973,-0.9002,-0.9023,-0.9033,-0.9047,-0.9067,-0.9067,-0.9073,-0.9105,-0.9066,-0.8998,-0.8994,-0.9077,-0.9077,-0.9077,0,-0.8622,-0.866,-0.867,-0.8686,-0.8746,-0.8749,-0.8774,-0.8813,-0.883,-0.8859,-0.8871,-0.89,-0.8917,-0.894,-0.8985,-0.9002,-0.9002,-0.9035,-0.9023,-0.9022,-0.9022,-0.9022,-0.8958,-0.9027,-0.9027,-0.9027,-0.9027,0,-0.857,-0.8572,-0.8641,-0.8646,-0.8652,-0.8703,-0.8707,-0.8737,-0.8772,-0.8786,-0.8833,-0.8845,-0.8903,-0.8923,-0.8958,-0.8972,-0.8978,-0.8998,-0.9008,-0.8995,-0.8993,-0.9007,-0.9011,-0.9026,-0.9026,-0.9026,-0.9026,0,-0.8494,-0.8539,-0.8554,-0.861,-0.8624,-0.8626,-0.8674,-0.8683,-0.8717,-0.8735,-0.8742,-0.8796,-0.8822,-0.8869,-0.8907,-0.8932,-0.8939,-0.8954,-0.8927,-0.8933,-0.892,-0.8922,-0.8865,-0.8861,-0.8929,-0.8928,-0.8928,0,-0.8458,-0.8462,-0.8519,-0.8532,-0.8556,-0.8575,-0.8594,-0.8645,-0.8662,-0.8707,-0.8711,-0.8741,-0.8768,-0.8807,-0.885,-0.8881,-0.8899,-0.8877,-0.8904,-0.8893,-0.8903,-0.8903,-0.8905,-0.8872,-0.887,-0.887,-0.8869,0,-0.8392,-0.8415,-0.8439,-0.8472,-0.8492,-0.852,-0.8551,-0.8559,-0.8618,-0.8635,-0.8662,-0.8683,-0.8724,-0.8754,-0.8792,-0.8819,-0.8855,-0.886,-0.886,-0.8848,-0.8833,-0.8844,-0.8913,-0.8862,-0.8862,-0.8863,-0.8863,-0.8864,-0.8337,-0.8344,-0.8386,-0.8413,-0.8441,-0.847,-0.8482,-0.8519,-0.8543,-0.8581,-0.8609,-0.8636,-0.8677,-0.8732,-0.8757,-0.8779,-0.8796,-0.8794,-0.8794,-0.8794,-0.879,-0.8828,-0.8786,-0.8786,-0.8787,-0.8787,-0.8787,0,-0.8276,-0.8306,-0.8329,-0.8372,-0.8393,-0.8425,-0.8461,-0.8477,-0.85,-0.8535,-0.8562,-0.8595,-0.8626,-0.8672,-0.8707,-0.8716,-0.8733,-0.8723,-0.8724,-0.8731,-0.8772,-0.877,-0.8709,-0.8709,-0.8709,-0.8709,-0.8709,-0.8709,-0.8246,-0.8261,-0.829,-0.832,-0.8351,-0.8378,-0.8396,-0.8423,-0.8452,-0.8488,-0.8514,-0.8544,-0.8585,-0.8623,-0.8654,-0.8667,-0.8678,-0.8664,-0.8682,-0.872,-0.8727,-0.8734,-0.8733,-0.8665,-0.8665,-0.864,-0.864,-0.864]}]]